Rutland, VT

2:46 PM EST on December 17, 2017 (GMT -0500)
Rutland State

Weather History for KRUT - October, 2010

Change the Weather History Date:

Wednesday, October 20, 2010

  Actual Average Record
Temperature  
Mean Temperature 46 °F -  
Max Temperature 57 °F - 82 °F (1965)
Min Temperature 35 °F - 17 °F (1972)
Degree Days  
Heating Degree Days 19    
Month to date heating degree days  
Since 1 July heating degree days  
Cooling Degree Days 0    
Month to date cooling degree days  
Year to date cooling degree days  
Moisture  
Dew Point 31 °F    
Average Humidity 57    
Maximum Humidity 87    
Minimum Humidity 33    
Precipitation  
Precipitation 0.00 in - 1.79 in (2006)
Month to date precipitation  
Year to date precipitation  
Sea Level Pressure  
Sea Level Pressure 29.81 in    
Wind  
Wind Speed 7 mph (South)    
Max Wind Speed 13 mph    
Max Gust Speed 17 mph    
Visibility 10 miles    
Events      
T = Trace of Precipitation, MM = Missing Value Source: NWS Daily Summary

Daily Weather History Graph

Daily Weather History Graph

Search for Another Location

Airport or City:

Trip Planner

Search our weather history database for the weather conditions in past years. The results will help you decide how hot, cold, wet, or windy it might be!

Date:

Astronomy

Oct. 20, 2010 Rise Set
Actual Time 7:11 AM EDT 6:00 PM EDT
Civil Twilight 6:42 AM EDT 6:29 PM EDT
Nautical Twilight 6:09 AM EDT 7:02 PM EDT
Astronomical Twilight 5:36 AM EDT 7:35 PM EDT
Moon 4:35 PM EDT (10/20) 4:48 AM EDT (10/20)
Length of Visible Light 11h 46m
Length of Day
10h 48m
Waxing Gibbous, 95% of the Moon is Illuminated
Oct 20
Waxing Gibbous
Oct 22
Full
Oct 30
Last Quarter
Nov 6
New
Nov 13
First Quarter

Hourly Weather History & Observations

Time (EDT) Temp. Windchill Dew Point Humidity Pressure Visibility Wind Dir Wind Speed Gust Speed Precip Events Conditions
12:15 AM 37.4 °F 32.1 °F 32.0 °F 81% 29.88 in 10.0 mi SE 6.9 mph - N/A   Overcast
12:35 AM 37.4 °F 32.1 °F 33.8 °F 87% 29.88 in 10.0 mi SE 6.9 mph - N/A   Overcast
12:55 AM 37.4 °F 32.8 °F 32.0 °F 81% 29.88 in 10.0 mi SE 5.8 mph - N/A   Mostly Cloudy
1:15 AM 37.4 °F 32.1 °F 32.0 °F 81% 29.88 in 10.0 mi ESE 6.9 mph - N/A   Mostly Cloudy
1:35 AM 37.4 °F 32.1 °F 30.2 °F 75% 29.88 in 10.0 mi SE 6.9 mph - N/A   Mostly Cloudy
1:55 AM 35.6 °F 29.2 °F 32.0 °F 87% 29.87 in 10.0 mi SE 8.1 mph - N/A   Mostly Cloudy
6:35 AM 37.4 °F 31.4 °F 30.2 °F 75% 29.88 in 10.0 mi SE 8.1 mph - N/A   Clear
6:55 AM 37.4 °F 30.8 °F 30.2 °F 75% 29.88 in 10.0 mi ESE 9.2 mph - N/A   Clear
7:15 AM 35.6 °F 28.6 °F 30.2 °F 81% 29.88 in 10.0 mi ESE 9.2 mph - N/A   Scattered Clouds
7:35 AM 35.6 °F - 30.2 °F 81% 29.89 in 10.0 mi Calm Calm - N/A   Overcast
7:55 AM 35.6 °F 28.6 °F 30.2 °F 81% 29.89 in 10.0 mi ESE 9.2 mph - N/A   Overcast
8:15 AM 37.4 °F 30.8 °F 32.0 °F 81% 29.89 in 10.0 mi SE 9.2 mph - N/A   Mostly Cloudy
8:35 AM 37.4 °F 31.4 °F 30.2 °F 75% 29.90 in 10.0 mi SE 8.1 mph - N/A   Partly Cloudy
8:55 AM 39.2 °F 35.9 °F 33.8 °F 81% 29.90 in 10.0 mi SE 4.6 mph - N/A   Clear
9:15 AM 42.8 °F 41.1 °F 33.8 °F 70% 29.90 in 10.0 mi SE 3.5 mph - N/A   Clear
9:35 AM 44.6 °F 43.1 °F 35.6 °F 71% 29.89 in 10.0 mi SE 3.5 mph - N/A   Clear
9:55 AM 46.4 °F - 35.6 °F 66% 29.89 in 10.0 mi Calm Calm - N/A   Clear
10:15 AM 48.2 °F - 35.6 °F 62% 29.88 in 10.0 mi Calm Calm - N/A   Clear
10:35 AM 51.8 °F - 33.8 °F 50% 29.87 in 10.0 mi WSW 4.6 mph - N/A   Clear
10:55 AM 51.8 °F - 35.6 °F 54% 29.87 in 10.0 mi West 3.5 mph - N/A   Clear
11:15 AM 53.6 °F - 33.8 °F 47% 29.86 in 10.0 mi West 10.4 mph - N/A   Clear
11:35 AM 53.6 °F - 32.0 °F 44% 29.85 in 10.0 mi WSW 11.5 mph - N/A   Clear
11:55 AM 53.6 °F - 32.0 °F 44% 29.85 in 10.0 mi WSW 11.5 mph 16.1 mph N/A   Clear
12:15 PM 55.4 °F - 32.0 °F 41% 29.85 in 10.0 mi West 9.2 mph 16.1 mph N/A   Clear
12:35 PM 55.4 °F - 32.0 °F 41% 29.83 in 10.0 mi SW 5.8 mph - N/A   Clear
12:55 PM 55.4 °F - 32.0 °F 41% 29.82 in 10.0 mi WSW 5.8 mph - N/A   Clear
1:15 PM 55.4 °F - 30.2 °F 38% 29.81 in 10.0 mi WSW 10.4 mph - N/A   Clear
1:35 PM 55.4 °F - 30.2 °F 38% 29.80 in 10.0 mi SSW 9.2 mph 16.1 mph N/A   Partly Cloudy
1:55 PM 55.4 °F - 30.2 °F 38% 29.79 in 10.0 mi West 11.5 mph - N/A   Partly Cloudy
2:15 PM 55.4 °F - 30.2 °F 38% 29.79 in 10.0 mi West 11.5 mph - N/A   Partly Cloudy
2:35 PM 57.2 °F - 30.2 °F 36% 29.78 in 10.0 mi West 12.7 mph - N/A   Clear
2:55 PM 55.4 °F - 30.2 °F 38% 29.78 in 10.0 mi West 9.2 mph - N/A   Clear
3:15 PM 55.4 °F - 30.2 °F 38% 29.78 in 10.0 mi SW 9.2 mph - N/A   Clear
3:35 PM 57.2 °F - 28.4 °F 33% 29.77 in 10.0 mi WSW 9.2 mph 17.3 mph N/A   Clear
3:55 PM 57.2 °F - 28.4 °F 33% 29.76 in 10.0 mi WSW 8.1 mph 16.1 mph N/A   Clear
4:15 PM 57.2 °F - 28.4 °F 33% 29.76 in 10.0 mi WSW 8.1 mph - N/A   Clear
4:35 PM 55.4 °F - 28.4 °F 36% 29.75 in 10.0 mi WSW 6.9 mph - N/A   Clear
4:55 PM 55.4 °F - 28.4 °F 36% 29.74 in 10.0 mi WSW 6.9 mph - N/A   Clear
5:15 PM 55.4 °F - 30.2 °F 38% 29.74 in 10.0 mi West 5.8 mph - N/A   Clear
5:35 PM 53.6 °F - 30.2 °F 41% 29.74 in 10.0 mi WSW 4.6 mph - N/A   Clear
5:55 PM 53.6 °F - 28.4 °F 38% 29.74 in 10.0 mi SSW 3.5 mph - N/A   Clear
6:15 PM 50.0 °F - 32.0 °F 50% 29.74 in 10.0 mi SSE 4.6 mph - N/A   Clear
6:35 PM 48.2 °F - 32.0 °F 54% 29.74 in 10.0 mi SE 5.8 mph - N/A   Clear
6:55 PM 46.4 °F 43.5 °F 32.0 °F 57% 29.73 in 10.0 mi SE 5.8 mph - N/A   Clear
7:15 PM 46.4 °F 42.9 °F 32.0 °F 57% 29.74 in 10.0 mi SE 6.9 mph - N/A   Clear
7:35 PM 44.6 °F 40.7 °F 32.0 °F 61% 29.75 in 10.0 mi SE 6.9 mph - N/A   Clear
7:55 PM 44.6 °F 41.4 °F 30.2 °F 57% 29.74 in 10.0 mi SE 5.8 mph - N/A   Clear
8:15 PM 44.6 °F 40.7 °F 30.2 °F 57% 29.75 in 10.0 mi SE 6.9 mph - N/A   Clear
8:35 PM 44.6 °F 40.7 °F 30.2 °F 57% 29.74 in 10.0 mi SE 6.9 mph - N/A   Clear
8:55 PM 42.8 °F 38.0 °F 28.4 °F 57% 29.74 in 10.0 mi SE 8.1 mph - N/A   Clear
9:15 PM 42.8 °F 37.5 °F 30.2 °F 61% 29.74 in 10.0 mi SE 9.2 mph - N/A   Clear
9:35 PM 42.8 °F 38.0 °F 30.2 °F 61% 29.74 in 10.0 mi SE 8.1 mph - N/A   Clear
10:15 PM 41.0 °F 34.7 °F 30.2 °F 65% 29.72 in 10.0 mi SE 10.4 mph - N/A   Clear
10:35 PM 42.8 °F 37.5 °F 30.2 °F 61% 29.72 in 10.0 mi SE 9.2 mph - N/A   Clear
10:55 PM 41.0 °F 35.2 °F 30.2 °F 65% 29.72 in 10.0 mi ESE 9.2 mph - N/A   Clear
11:15 PM 41.0 °F 34.7 °F 30.2 °F 65% 29.71 in 10.0 mi ESE 10.4 mph - N/A   Clear
11:35 PM 42.8 °F 37.5 °F 30.2 °F 61% 29.71 in 10.0 mi SE 9.2 mph - N/A   Clear
11:55 PM 42.8 °F 37.0 °F 32.0 °F 66% 29.69 in 10.0 mi SE 10.4 mph - N/A   Clear